Погода Верхняя Гутара

Погода Верхняя Гутара : погода сейчас, прогноз погоды и архив. Всё, что Вы хотите узнать о погоде Верхняя Гутара!

Поиск расширенной информации на нашем сайте:

Другие новости

Новости СМИ2

Главная страница сайта

Новости сайта

03.07.2017

Напоминаем, что на нашем специализированном сайте Метеоцентр.Азия вы можете получить высокодетализированные автоматические прогнозы погоды по пунктам России, СНГ и мира в авиационном формате (включающие направление и скорость ветра, видимость, явления погоды, количество и форму облачности, нижнюю и верхнюю границу облачности).

Рекомендуем: купить упаковку для тортов в Москве

Погода Верхняя Гутара - сегодня

Время (UTC), дата Ветер
(°,м/с) 
Видим.   Явления Облачность Т
(°С)
Тd
(°С)
f(%) Тe
(°С)
Pmin
(гПа)
dP
(гПа)
Po
(мм)
O2
(г/м3)
Тmin Tmax R s Состояние
почвы
15 18.06.18 350 (С) 20000 м    10/0 верхняя 
[Ci fib]
+15.2 +10.7 74 +17  1007.4  0.5             
18 18.06.18 тихо ()   20000 м    10/0 верхняя 
[Ci fib]
+10.2 +8.4 89 +10  1008.7  -0.7             
21 18.06.18 тихо ()   20000 м    10/0 верхняя 
[Cc]
+8.6 +7.8 95 +9  1008.4  -1.2             
00 19.06.18 тихо ()   20000 м    10/0 средняя 
[Ac As]
+11.4 +9.4 87 +11  1006.2  -0.6    +8.5        влажная 
03 19.06.18 тихо ()   20000 м    10/0 средняя 
[Ac As]
+18.2 +11.5 65 +18  1001.6  -1.5             
06 19.06.18 тихо ()   20000 м    10/4 600 м кучево-дожд., средняя 
[Cb cap|As trans]
+22.4 +12.8 55 +22  999.7  -0.3             
09 19.06.18 тихо ()   20000 м    10/10 600 м кучево-дожд. 
[Cb cap]
+22.4 +16.3 68 +22  1000.6             
12 19.06.18 тихо ()   20000 м    10/10 600 м кучево-дожд. 
[Cb cap]
+18.4 +12.9 70 +18  1002.4      +23.5       
15 19.06.18 тихо ()   20000 м    10/8 600 м кучево-дожд., верхняя 
[Cb cap|Ci fib]
+15.3 +12.6 84 +15  1003.1  -0.4             
18 19.06.18 тихо ()   20000 м    10/0 верхняя 
[Ci fib]
+9.9 +9.3 96 +10  1005.7  0.2             
21 19.06.18 тихо ()   20000 м    10/0 верхняя 
[Ci fib]
+7 +6.6 97 +7  1007             
00 20.06.18 тихо ()   20000 м    10/0 средняя 
[As trans]
+9.7 +8.5 92 +10  1006.5  0.7    +7        влажная 
03 20.06.18 тихо ()   20000 м    10/5 600 м кучево-дожд., средняя, верхняя 
[Cb cap|Ac lent|Cs]
+17.6 +11 65 +18  1003.5  0.1             
06 20.06.18 180 (Ю) 20000 м    10/8 600 м кучево-дожд., верхняя 
[Cb cap|Ci fib]
+19.8 +12.3 62 +21  1003.2  0.6             
09 20.06.18 тихо ()   20000 м    10/5 600 м кучево-дожд., верхняя 
[Cb cap|Cs]
+20.6 +12.9 61 +21  1002.9             
12 20.06.18 180 (Ю) 20000 м    10/5 600 м кучево-дожд., верхняя 
[Cb cap|Cs]
+21.4 +13.8 62 +21  1002.3  -0.2      +24.2       
15 20.06.18 тихо ()   20000 м    10/3 600 м кучево-дожд., верхняя 
[Cb cap|Ci fib]
+14.6 +11.4 81 +15  1006.3  1.2             
18 20.06.18 тихо ()   20000 м    10/0 верхняя 
[Ci fib]
+9.5 +8.9 96 +10  1009.4  0.7             
21 20.06.18 тихо ()   20000 м    10/0 верхняя 
[Ci fib]
+5.9 +5.4 97 +6  1012  0.9             
00 21.06.18 тихо ()   20000 м    10/0 средняя, верхняя 
[Ac lent|Ci fib]
+9.8 +7.9 88 +10  1010.5  0.3    +5        влажная 
03 21.06.18 тихо ()   20000 м    10/4 600 м кучево-дожд., средняя, верхняя 
[Cb cap|Ac trans|Ci fib]
+19.5 +12 62 +20  1004.4  -1.9             
06 21.06.18 320 (СЗ) 20000 м    10/8 600 м кучево-дожд., средняя 
[Cb cap|As trans]
+21.8 +10.8 50 +22  1003.4  -0.2             
09 21.06.18 тихо ()   20000 м    10/5 600 м кучево-дожд., средняя, верхняя 
[Cb cap|Ac trans|Ci fib]
+20.8 +12.5 59 +21  1003.9  0.2             
12 21.06.18 050 (СВ) 20000 м    10/3 600 м кучево-дожд., средняя, верхняя 
[Cb cap|Ac trans|Ci fib]
+20.6 +11.8 57 +21  1003.4  -0.6      +23.3       
15 21.06.18 тихо ()   20000 м    10/10 600 м кучево-дожд. 
[Cb cap]
+17 +11.3 69 +17  1007.1             
Время (UTC), дата Ветер
(°,м/с) 
Видим.   Явления Облачность Т
(°С)
Тd
(°С)
f(%) Тe
(°С)
Pmin
(гПа)
dP
(гПа)
Po
(мм)
O2
(г/м3)
Тmin Tmax R s Состояние
почвы

Для получения пояснительной информации подведите курсор к названию столбца.

ПОГОДА Верхняя Гутара - архив

Всё, что Вы хотите узнать о погоде Верхняя Гутара - удобно и подробно!

Выберите нужную дату (начиная с 1 января 2015* года) и нажмите кнопку "Найти".
Будут отображены архивные сводки погоды по пункту Верхняя Гутара, начиная с указанной даты.


Отображать данные в формате CSV (для использования в таблицах Excel)


Внимание! Наш архив погоды предназначен исключительно для личного некоммерческого использования в познавательных целях. Если Вам необходимы официальные справки о состоянии погоды (для производственных, юридических, коммерческих и т.п. целей), обращайтесь в органы Росгидромета.

*Примечание: данная дата относится к архиву по метеостанциям СССР (Россия, СНГ, Балтия).
Архив по метеостанциям Зарубежной Европы и Азии (кроме Китая) хранится 10 дней, по другим регионам земного шара (Китай, Африка, Америка, Австралия, Океания) - 1 день.

Верхняя Гутара - район местоположения метеостанции


Название, широта, долгота, высота метеостанции:
Верхняя Гутара 54.2°ш. 97°д. 984 м над ур. моря [Российская Федерация]

Дополнительная информация

В oтличие oт бoльшинства пoгoдных сайтoв мы публикуем пoдрoбную метеoинфoрмацию в детальнoм прoфессиoнальнoм фoрмате.

Характеристики температуры и влажнoсти вoздуха измеряются на высoте 2 м в тени вдали oт зданий и деревьев.
Скoрoсть ветра измеряется на высoте 10 м (на урoвне рoста челoвека скoрoсть ветра ниже в 1.5-2 раза). Если метеoстанция нахoдится в гoрoде или в лесу, тo скoрoсть ветра занижена на 2-4 м/с пo сравнению с oткрытым местoм. Скoрoсть ветра над акватoриями крупных рек и oзёр, а также на вершинах хoлмoв на 2-5 м/с выше, чем в oбычных услoвиях.
Атмoсфернoе давление в разных тoчках местнoсти мoжет значительнo oтличаться oт давления на метеoстанции, в зависимoсти oт услoвий рельефа (при пoдъёме на 10 м давление пoнижается примернo на 1 мм рт.ст.).